KINEIS-3E

Satellite information

Favourite Embed

Satellite Type and Status

PAYLOADIN ORBIT

Key statistics

Satellite KINEIS-3E at a glance.

Uptime

450

Days in orbit

Revolutions

≈ 14.7

Per day

Orbit

SSO

Sun Synchronous Orbit

Inclination

98.0

Latest

Satellite identification and parameters

Extended collection of information and parameters for KINEIS-3E.

Object identification

Identified? True

Debris? False

Object name: KINEIS-3E

International designator: 2024-172C

Object number (NORAD): 61222

Object ID (CCSDS): 61222

Country: FRANCE (FR)

Current information (Y/N): Y

RCS size: MEDIUM

Orbital parameters

Period: 97.804 minutes

Inclination: 98.0264 deg

SMA: 7031.771 km

Apoapsis: 654.524 km

Periapsis: 652.749 km

RAAN: 74.6068 deg

Eccentricy: 0.0001262

Argument of periapsis: 81.8127 deg

Mean anomaly: 278.3223 deg

Mean motion: 14.72331637 rev/day

Mean motion (dot): 0.00004178 rev/day2

B* drag term: 0.00066815527 1/REarth

Two-line elements (TLE)

Creation date: Dec. 14, 2025, 3:07 a.m.

Reference frame: TEME

Reference center: EARTH

Epoch: Dec. 13, 2025, 12:21 p.m. UTC

TLE line 0: 0 KINEIS-3E

TLE line 1: 1 61222U 24172C 25347.51479162 .00004178 00000-0 66816-3 0 9995

TLE line 2: 2 61222 98.0264 74.6068 0001262 81.8127 278.3223 14.72331637 66032

Live tracking on map

Real-time ground track for satellite KINEIS-3E.

In-orbit conjunctions

There are no conjunctions computed for KINEIS-3E, at the moment. Check back to stay up to date, as we update our databases every day.

Go to all conjunctions

Associated space launch

Second batch of five satellites for the French Kinéis IoT constellation designed to operate with 25 nanosatellites of 30 kg each.

KINEIS-3E was lifted into orbit during the mission ‘Electron | Kinéis Killed the RadIoT Star (Kinéis 6-10)’, on board a Electron space rocket.

The launch took place on Sept. 20, 2024, 11:01 p.m. from Rocket Lab Launch Complex 1A.

For more information about the launch, click the button.

Launch to space Electron | Kinéis Killed the RadIoT Star (Kinéis 6-10)
Electron | Kinéis Killed the RadIoT Star (Kinéis 6-10)

Agency: Kinéis

Status: Launch Successful

Launch date: Sept. 20, 2024, 11:01 p.m. UTC

Rocket: Electron

Launch pad: Rocket Lab Launch Complex 1A

Location: Rocket Lab Launch Complex 1, Mahia Peninsula, New Zealand

...

Latest news about this satellite

News about space launch
Electron launches second set of Kinéis satellites

An Electron launched a second set of satellites for French startup Kinéis Sept. 20, putting that company on track to begin offering Internet of Things services.

News about space launch
Rocket Lab launches 5 Internet of Things satellites following mid-week scrub

The mission will be the 53rd launch of an Electron rocket to date. Liftoff from Launch Complex 1 Pad A happened on Sept. 21 at 11:01 a.m. NZST (Sept. 20 at 7:01 p.m. EDT, 2301 UTC).

News about space launch
Launch Roundup: Falcon 9 and Electron to extend satellite constellations

This week’s manifest includes the delayed launches of a Falcon 9 with Galileo global positioning satellites and an Electron with a second batch of satellites for Kinéis. SpaceX will also launch one batch of Starlink satellites from California as the const...


Newsletter sign-up

Weekly statistics, charts and insights to help you stay on top of the space industry.